Time,TemperatureF,DewpointF,PressureIn,WindDirection,WindDirectionDegrees,WindSpeedMPH,WindSpeedGustMPH,Humidity,HourlyPrecipIn,Conditions,Clouds,dailyrainin,SoftwareType,DateUTC
2013-11-07 00:24:00,63.0,61.0,30.05,ENE,63,0.0,0.0,94,0.00,,,0.00,,2013-11-07 06:24:00,
2013-11-07 00:52:00,62.0,61.0,30.04,ENE,63,0.0,0.0,95,0.00,,,0.00,,2013-11-07 06:52:00,
2013-11-07 01:12:00,62.0,61.0,30.04,ENE,63,0.0,0.0,95,0.00,,,0.00,,2013-11-07 07:12:00,
2013-11-07 01:22:00,62.0,61.0,30.03,ENE,62,0.0,0.0,95,0.00,,,0.00,,2013-11-07 07:22:00,
2013-11-07 01:42:00,62.0,61.0,30.03,ENE,63,0.0,0.0,95,0.00,,,0.00,,2013-11-07 07:42:00,
2013-11-07 01:52:00,62.0,61.0,30.03,ENE,63,0.0,0.0,95,0.00,,,0.00,,2013-11-07 07:52:00,
2013-11-07 02:22:00,61.0,60.0,30.03,ENE,63,0.0,0.0,96,0.00,,,0.00,,2013-11-07 08:22:00,
2013-11-07 02:42:00,61.0,60.0,30.03,ENE,63,0.0,0.0,96,0.00,,,0.00,,2013-11-07 08:42:00,
2013-11-07 02:53:00,60.0,59.0,30.02,ENE,63,0.0,0.0,96,0.00,,,0.00,,2013-11-07 08:53:00,
2013-11-07 03:11:00,60.0,59.0,30.02,ENE,63,0.0,0.0,97,0.00,,,0.00,,2013-11-07 09:11:00,
2013-11-07 03:22:00,60.0,59.0,30.01,ENE,63,0.0,0.0,97,0.00,,,0.00,,2013-11-07 09:22:00,
2013-11-07 03:42:00,60.0,59.0,30.01,ENE,63,0.0,0.0,97,0.00,,,0.00,,2013-11-07 09:42:00,
2013-11-07 03:53:00,59.0,58.0,30.01,ENE,61,0.0,0.0,97,0.00,,,0.00,,2013-11-07 09:53:00,
2013-11-07 04:13:00,59.0,58.0,30.02,ENE,61,0.0,0.0,97,0.00,,,0.00,,2013-11-07 10:13:00,
2013-11-07 04:23:00,59.0,58.0,30.01,ENE,61,0.0,0.0,97,0.00,,,0.00,,2013-11-07 10:23:00,
2013-11-07 04:42:00,58.0,57.0,30.01,ENE,60,0.0,0.0,97,0.00,,,0.00,,2013-11-07 10:42:00,
2013-11-07 04:52:00,59.0,58.0,30.01,ENE,61,0.0,0.0,98,0.00,,,0.00,,2013-11-07 10:52:00,
2013-11-07 05:12:00,59.0,58.0,30.01,ENE,61,0.0,0.0,98,0.00,,,0.00,,2013-11-07 11:12:00,
2013-11-07 05:22:00,59.0,58.0,30.02,ENE,60,0.0,0.0,98,0.00,,,0.00,,2013-11-07 11:22:00,
2013-11-07 05:43:00,59.0,58.0,30.01,ENE,61,0.0,0.0,98,0.00,,,0.00,,2013-11-07 11:43:00,
2013-11-07 05:52:00,59.0,58.0,30.02,ENE,60,0.0,0.0,98,0.00,,,0.00,,2013-11-07 11:52:00,
2013-11-07 06:12:00,59.0,58.0,30.02,ENE,60,0.0,0.0,98,0.00,,,0.00,,2013-11-07 12:12:00,
2013-11-07 06:22:00,59.0,58.0,30.02,ENE,60,0.0,0.0,98,0.00,,,0.00,,2013-11-07 12:22:00,
2013-11-07 06:42:00,59.0,58.0,30.03,ENE,63,0.0,0.0,98,0.00,,,0.00,,2013-11-07 12:42:00,
2013-11-07 06:52:00,60.0,59.0,30.03,ENE,63,0.0,0.0,98,0.00,,,0.00,,2013-11-07 12:52:00,
2013-11-07 07:12:00,60.0,59.0,30.03,ENE,63,0.0,0.0,98,0.00,,,0.00,,2013-11-07 13:12:00,
2013-11-07 07:22:00,61.0,60.0,30.04,ENE,63,0.0,0.0,98,0.00,,,0.00,,2013-11-07 13:22:00,
2013-11-07 07:42:00,62.0,61.0,30.04,ENE,63,0.0,0.0,98,0.00,,,0.00,,2013-11-07 13:42:00,
2013-11-07 07:52:00,63.0,62.0,30.04,SSE,147,0.0,0.0,97,0.00,,,0.00,,2013-11-07 13:52:00,
2013-11-07 08:12:00,63.0,62.0,30.05,SSE,147,0.0,0.0,96,0.00,,,0.00,,2013-11-07 14:12:00,
2013-11-07 08:22:00,65.0,64.0,30.05,West,270,0.0,0.0,96,0.00,,,0.00,,2013-11-07 14:22:00,
2013-11-07 08:42:00,66.0,64.0,30.06,WNW,289,0.0,4.0,94,0.00,,,0.00,,2013-11-07 14:42:00,
2013-11-07 08:52:00,65.0,63.0,30.07,West,262,3.0,7.0,93,0.00,,,0.00,,2013-11-07 14:52:00,
2013-11-07 09:11:00,64.0,63.0,30.08,WSW,249,1.0,4.0,95,0.00,,,0.00,,2013-11-07 15:11:00,
2013-11-07 09:22:00,63.0,62.0,30.09,NW,322,2.0,8.0,96,0.00,,,0.00,,2013-11-07 15:22:00,
2013-11-07 09:43:00,63.0,62.0,30.09,SSW,205,0.0,3.0,97,0.01,,,0.01,,2013-11-07 15:43:00,
2013-11-07 09:53:00,63.0,62.0,30.09,East,88,0.0,3.0,97,0.01,,,0.01,,2013-11-07 15:53:00,
2013-11-07 10:13:00,63.0,62.0,30.09,ESE,108,1.0,4.0,97,0.01,,,0.01,,2013-11-07 16:13:00,
2013-11-07 10:23:00,63.0,62.0,30.09,East,92,0.0,4.0,97,0.02,,,0.02,,2013-11-07 16:23:00,
2013-11-07 10:42:00,64.0,63.0,30.09,ENE,63,0.0,8.0,97,0.02,,,0.03,,2013-11-07 16:42:00,
2013-11-07 10:52:00,64.0,63.0,30.09,South,177,0.0,5.0,97,0.02,,,0.03,,2013-11-07 16:52:00,
2013-11-07 11:12:00,64.0,63.0,30.09,ESE,115,1.0,3.0,97,0.02,,,0.03,,2013-11-07 17:12:00,
2013-11-07 11:22:00,64.0,63.0,30.09,WNW,286,0.0,4.0,96,0.01,,,0.03,,2013-11-07 17:22:00,
2013-11-07 11:43:00,64.0,63.0,30.08,NW,309,3.0,8.0,96,0.00,,,0.03,,2013-11-07 17:43:00,
2013-11-07 11:52:00,64.0,63.0,30.08,WSW,239,1.0,8.0,95,0.00,,,0.03,,2013-11-07 17:52:00,
2013-11-07 12:12:00,65.0,63.0,30.07,WSW,258,1.0,9.0,94,0.00,,,0.03,,2013-11-07 18:12:00,
2013-11-07 12:23:00,65.0,63.0,30.07,ESE,116,1.0,8.0,92,0.00,,,0.03,,2013-11-07 18:23:00,
2013-11-07 12:42:00,64.0,62.0,30.07,West,277,2.0,13.0,92,0.00,,,0.03,,2013-11-07 18:42:00,
2013-11-07 12:52:00,64.0,61.0,30.07,WNW,288,3.0,12.0,90,0.00,,,0.03,,2013-11-07 18:52:00,
2013-11-07 13:22:00,61.0,58.0,30.08,WNW,286,4.0,9.0,90,0.00,,,0.03,,2013-11-07 19:22:00,
2013-11-07 13:42:00,59.0,57.0,30.08,WNW,285,4.0,9.0,92,0.00,,,0.03,,2013-11-07 19:42:00,
2013-11-07 13:52:00,58.0,56.0,30.08,WNW,288,1.0,9.0,92,0.00,,,0.03,,2013-11-07 19:52:00,
2013-11-07 14:22:00,59.0,56.0,30.08,SW,235,2.0,10.0,89,0.00,,,0.03,,2013-11-07 20:22:00,
2013-11-07 14:42:00,59.0,54.0,30.08,West,277,3.0,10.0,85,0.00,,,0.03,,2013-11-07 20:42:00,
2013-11-07 14:52:00,61.0,55.0,30.08,West,271,4.0,9.0,80,0.00,,,0.03,,2013-11-07 20:52:00,
2013-11-07 15:12:00,61.0,54.0,30.08,West,269,3.0,8.0,77,0.00,,,0.03,,2013-11-07 21:12:00,
2013-11-07 15:22:00,61.0,54.0,30.07,WSW,240,1.0,6.0,78,0.00,,,0.03,,2013-11-07 21:22:00,
2013-11-07 15:43:00,61.0,53.0,30.08,SSW,208,1.0,11.0,76,0.00,,,0.03,,2013-11-07 21:43:00,
2013-11-07 15:53:00,62.0,53.0,30.09,West,264,3.0,8.0,73,0.00,,,0.03,,2013-11-07 21:53:00,
2013-11-07 16:13:00,61.0,52.0,30.09,West,271,2.0,6.0,73,0.00,,,0.03,,2013-11-07 22:13:00,
2013-11-07 16:24:00,60.0,51.0,30.09,West,281,2.0,8.0,73,0.00,,,0.03,,2013-11-07 22:24:00,
2013-11-07 16:43:00,59.0,51.0,30.09,West,259,2.0,9.0,74,0.00,,,0.03,,2013-11-07 22:43:00,
2013-11-07 16:53:00,59.0,51.0,30.10,West,270,1.0,5.0,75,0.00,,,0.03,,2013-11-07 22:53:00,
2013-11-07 17:12:00,57.0,50.0,30.11,WSW,240,0.0,5.0,77,0.00,,,0.03,,2013-11-07 23:12:00,
2013-11-07 17:22:00,55.0,49.0,30.11,WSW,256,0.0,3.0,79,0.00,,,0.03,,2013-11-07 23:22:00,
2013-11-07 17:43:00,54.0,48.0,30.11,WSW,246,0.0,5.0,80,0.00,,,0.03,,2013-11-07 23:43:00,
2013-11-07 17:53:00,53.0,48.0,30.12,West,272,1.0,4.0,82,0.00,,,0.03,,2013-11-07 23:53:00,
2013-11-07 18:12:00,53.0,47.0,30.13,SW,231,1.0,3.0,80,0.00,,,0.03,,2013-11-08 00:12:00,
2013-11-07 18:22:00,53.0,47.0,30.13,West,278,2.0,5.0,79,0.00,,,0.03,,2013-11-08 00:22:00,
2013-11-07 18:42:00,52.0,46.0,30.14,WSW,245,0.0,5.0,80,0.00,,,0.03,,2013-11-08 00:42:00,
2013-11-07 18:52:00,51.0,45.0,30.14,West,276,0.0,2.0,81,0.00,,,0.03,,2013-11-08 00:52:00,
2013-11-07 19:22:00,50.0,46.0,30.15,WSW,253,0.0,3.0,85,0.00,,,0.03,,2013-11-08 01:22:00,
2013-11-07 19:52:00,50.0,45.0,30.16,SSW,208,0.0,6.0,82,0.00,,,0.03,,2013-11-08 01:52:00,
2013-11-07 20:12:00,49.0,44.0,30.16,North,350,0.0,2.0,82,0.00,,,0.03,,2013-11-08 02:12:00,
2013-11-07 20:22:00,49.0,43.0,30.16,West,263,0.0,2.0,81,0.00,,,0.03,,2013-11-08 02:22:00,
2013-11-07 20:42:00,48.0,42.0,30.17,ENE,61,0.0,3.0,81,0.00,,,0.03,,2013-11-08 02:42:00,
2013-11-07 20:52:00,47.0,42.0,30.17,WSW,254,0.0,2.0,82,0.00,,,0.03,,2013-11-08 02:52:00,
2013-11-07 21:12:00,47.0,42.0,30.17,SW,226,0.0,4.0,82,0.00,,,0.03,,2013-11-08 03:12:00,
2013-11-07 21:22:00,47.0,41.0,30.17,SSW,198,0.0,4.0,81,0.00,,,0.03,,2013-11-08 03:22:00,
2013-11-07 21:44:00,47.0,41.0,30.17,SSE,167,1.0,5.0,81,0.00,,,0.03,,2013-11-08 03:44:00,
2013-11-07 21:55:00,47.0,41.0,30.17,WSW,243,1.0,4.0,81,0.00,,,0.03,,2013-11-08 03:55:00,
2013-11-07 22:24:00,47.0,41.0,30.18,North,8,1.0,6.0,78,0.00,,,0.03,,2013-11-08 04:24:00,
2013-11-07 22:44:00,47.0,40.0,30.17,WSW,256,1.0,5.0,77,0.00,,,0.03,,2013-11-08 04:44:00,
2013-11-07 22:54:00,47.0,40.0,30.17,SE,145,2.0,14.0,76,0.00,,,0.03,,2013-11-08 04:54:00,
2013-11-07 23:13:00,47.0,39.0,30.17,NE,47,1.0,8.0,75,0.00,,,0.03,,2013-11-08 05:13:00,
2013-11-07 23:23:00,47.0,39.0,30.17,ESE,121,2.0,8.0,75,0.00,,,0.03,,2013-11-08 05:23:00,
2013-11-07 23:43:00,47.0,39.0,30.17,SW,229,1.0,9.0,75,0.00,,,0.03,,2013-11-08 05:43:00,
2013-11-07 23:54:00,46.0,39.0,30.17,SSE,156,2.0,6.0,75,0.00,,,0.03,,2013-11-08 05:54:00,